Home   Weather   Zarqa   Past weeks

Flag for Jordan Past Weather in Zarqa, Jordan — Yesterday and Last 2 Weeks

Now
84 °F

Duststorm.


Feels Like: 81 °F
Forecast: 57 / 80 °F
Wind: 7 mph from Southeast

Location: Amman Airport

Current Time: Apr 27, 2017 at 2:33:40 pm

Latest Report: Apr 27, 2017 at 2:00 pm


Visibility: 3 mi

Pressure: 29.98 "Hg (27.97 "Hg at 615m altitude)

Humidity: 9%

Dew Point: 19 °F

Location of ZarqaLocation

Past Weather in Zarqa — Graph

°F

Zarqa Temperature Yesterday

Maximum temperature yesterday: 84 °F (at 3:00 pm)
Minimum temperature yesterday: 57 °F (at 4:00 am)
Average temperature yesterday: 70 °F

High & Low Weather Summary for the Past Weeks

 TemperatureHumidityPressure
High93 °F (Apr 22, 3:00 pm)94% (Apr 17, 6:00 am)30.15 "Hg (Apr 17, 6:00 am)
Low46 °F (Apr 25, 5:00 am)7% (Apr 22, 2:00 pm)29.74 "Hg (Apr 13, 2:00 pm)
Average66 °F42%30.02 "Hg
* Reported Apr 12 1:00 pm — Apr 27 1:00 pm, Zarqa, Weather by CustomWeather, © 2017

Note: Actual official high and low records may vary slightly from our data, if they occured in-between our weather recording intervals... More about our weather records

Advertising

Zarqa Weather History for the Previous 24 Hours

Scroll right to see more
 ConditionsComfort  
Time TempWeatherWind HumidityBarometerVisibility
1:00 pm
Thu, Apr 27
82 °FDuststorm.5 mph8%30.01 "Hg3 mi
12:00 pm81 °FDuststorm.5 mph10%30.01 "Hg3 mi
11:00 am77 °FDuststorm.No wind11%30.01 "Hg3 mi
10:00 am73 °FDuststorm.6 mph14%30.01 "Hg2 mi
9:00 am72 °FDuststorm.No wind19%30.01 "Hg2 mi
8:00 am66 °FDuststorm.6 mph19%30.01 "Hg2 mi
7:00 am61 °FDuststorm.No wind25%30.01 "Hg2 mi
6:00 am61 °FDuststorm.No wind29%29.98 "Hg2 mi
5:00 am63 °FHaze.No wind25%29.98 "Hg3 mi
4:00 am68 °FDuststorm.3 mph21%29.98 "Hg2 mi
3:00 am70 °FDuststorm.9 mph25%29.98 "Hg2 mi
2:00 am70 °FDuststorm.5 mph25%30.01 "Hg2 mi
1:00 am72 °FDuststorm.5 mph22%30.01 "Hg2 mi
12:00 am72 °FDuststorm.No wind20%29.98 "Hg2 mi
11:00 pm
Wed, Apr 26
72 °FDuststorm.5 mph27%29.95 "Hg2 mi
10:00 pm72 °FDuststorm.No wind27%29.98 "Hg2 mi
9:00 pm73 °FDuststorm.3 mph27%29.98 "Hg2 mi
8:00 pm75 °FDuststorm.5 mph22%29.95 "Hg2 mi
7:00 pm77 °FDuststorm.6 mph17%29.95 "Hg1 mi
6:00 pm81 °FDuststorm.7 mph14%29.98 "Hg1 mi
5:00 pm82 °FDuststorm.8 mph13%29.98 "Hg1 mi
4:00 pm84 °FDuststorm.7 mph14%29.98 "Hg2 mi
3:00 pm84 °FDuststorm.9 mph12%30.01 "Hg2 mi
2:00 pm81 °FDuststorm.8 mph13%30.01 "Hg1 mi
Weather by CustomWeather, © 2017

See weather overviewHow to use our weather pages